Location: Juzet
(42.9779°N, 0.7597°E)
Time: 08:26:23
(UTC+00:00)

Spot 4 Rocket - Pass Details

Date: 14 July 2020
Orbit: 777 x 781 km, 98.7° (Epoch: 04 August)

Event Time Altitude Azimuth Distance (km) Brightness Sun altitude
Rises 03:03:55 0° 14° (NNE) 3,271 8.4 -13.2°
Reaches altitude 10° 03:06:14 10° 15° (NNE) 2,340 7.5 -12.9°
Maximum altitude 03:11:25 84° 104° (ESE) 789 4.1 -12.2°
Enters shadow 03:16:29 10° 193° (SSW) 2,298 6.0 -11.6°
